TimeMST,TemperatureF,Dew PointF,Humidity,Sea Level PressureIn,VisibilityMPH,Wind Direction,Wind SpeedMPH,Gust SpeedMPH,PrecipitationIn,Events,Conditions,WindDirDegrees,DateUTC
12:58 AM,24.4,21.6,89,30.00,10.0,Variable,5.8,-,N/A,,Overcast,0,2013-12-30 07:58:00
1:19 AM,26.6,23.0,86,29.85,10.0,WSW,4.6,-,N/A,,Overcast,240,2013-12-30 08:19:00
1:47 AM,28.4,24.8,86,29.85,10.0,NNW,20.7,27.6,N/A,,Overcast,330,2013-12-30 08:47:00
1:51 AM,32.0,26.6,80,29.85,10.0,NNW,19.6,27.6,N/A,,Overcast,330,2013-12-30 08:51:00
1:58 AM,31.8,27.7,85,29.97,10.0,NNW,17.3,27.6,0.00,,Mostly Cloudy,330,2013-12-30 08:58:00
2:03 AM,32.0,28.4,87,29.85,10.0,NNW,16.1,-,N/A,,Mostly Cloudy,330,2013-12-30 09:03:00
2:58 AM,33.8,25.3,71,29.96,10.0,NW,17.3,-,0.00,,Clear,320,2013-12-30 09:58:00
3:58 AM,36.0,25.7,66,29.97,10.0,NW,26.5,33.4,N/A,,Mostly Cloudy,320,2013-12-30 10:58:00
4:58 AM,36.3,25.7,65,30.00,10.0,NNW,20.7,33.4,N/A,,Mostly Cloudy,330,2013-12-30 11:58:00
5:58 AM,34.9,26.8,72,30.02,10.0,NNW,23.0,28.8,N/A,,Scattered Clouds,330,2013-12-30 12:58:00
6:58 AM,36.5,26.1,66,30.05,10.0,NNW,23.0,34.5,N/A,,Overcast,330,2013-12-30 13:58:00
7:58 AM,36.3,25.7,65,30.10,10.0,NNW,25.3,31.1,N/A,,Overcast,330,2013-12-30 14:58:00
8:10 AM,33.8,28.4,81,29.99,10.0,NNE,17.3,27.6,N/A,,Overcast,20,2013-12-30 15:10:00
8:58 AM,31.6,27.5,85,30.14,10.0,North,21.9,-,N/A,,Overcast,360,2013-12-30 15:58:00
9:58 AM,32.7,27.0,79,30.17,10.0,NNW,27.6,33.4,N/A,,Overcast,340,2013-12-30 16:58:00
10:58 AM,33.8,26.2,74,30.20,10.0,NNW,27.6,36.8,N/A,,Overcast,340,2013-12-30 17:58:00
11:58 AM,32.2,25.9,78,30.19,10.0,North,24.2,-,N/A,,Overcast,360,2013-12-30 18:58:00
12:58 PM,33.1,24.1,70,30.17,10.0,North,25.3,35.7,N/A,,Clear,350,2013-12-30 19:58:00
1:58 PM,32.9,23.7,69,30.16,10.0,NNW,24.2,29.9,N/A,,Clear,340,2013-12-30 20:58:00
2:58 PM,31.6,23.5,72,30.17,10.0,North,18.4,-,N/A,,Overcast,360,2013-12-30 21:58:00
3:58 PM,30.4,22.6,73,30.18,10.0,NNE,12.7,-,N/A,,Overcast,20,2013-12-30 22:58:00
4:58 PM,27.7,22.3,80,30.19,10.0,ENE,6.9,-,N/A,,Overcast,70,2013-12-30 23:58:00
5:58 PM,27.0,21.2,79,30.18,10.0,ENE,3.5,-,N/A,,Overcast,70,2013-12-31 00:58:00
6:58 PM,26.1,22.5,86,30.16,10.0,ESE,5.8,-,N/A,,Overcast,120,2013-12-31 01:58:00
7:58 PM,26.4,22.3,84,30.15,10.0,South,9.2,-,N/A,,Overcast,180,2013-12-31 02:58:00
8:58 PM,26.6,22.1,83,30.13,10.0,SE,6.9,-,N/A,,Overcast,140,2013-12-31 03:58:00
9:58 PM,26.1,21.7,84,30.09,10.0,SSE,13.8,17.3,N/A,,Mostly Cloudy,160,2013-12-31 04:58:00
10:58 PM,25.3,21.7,86,30.06,10.0,SSE,6.9,-,N/A,,Clear,150,2013-12-31 05:58:00
11:58 PM,23.7,21.0,89,30.02,10.0,South,4.6,-,N/A,,Clear,180,2013-12-31 06:58:00